Regional Weather Roundup
Issued by NWS

Home | Current Version | Previous Version | Graphics & Text | Print | Product List | Glossary On
Versions: 1 2 3 4 5 6 7 8 9 10 11 12 13 14 15 16 17 18 19 20 21 22 23 24 25 26 27 28 29 30 31 32 33 34 35 36 37 38 39 40 41 42 43 44 45 46 47 48 49 50
135
ASUS43 KMPX 061501
RWRMN
WEATHER ROUNDUP FOR MINNESOTA
NATIONAL WEATHER SERVICE TWIN CITIES/CHANHASSEN MN
1000 AM CDT FRI MAY 06 2016


NOTE: "FAIR" INDICATES FEW OR NO CLOUDS BELOW 12,000 FEET WITH NO
SIGNIFICANT WEATHER AND/OR OBSTRUCTIONS TO VISIBILITY. N/A MEANS
CURRENT SKY AND/OR WEATHER CONDITIONS ARE NOT AVAILABLE.

MNZ060>063-068>070-061600-
   Twin Cities Metro

CITY           SKY/WX    TMP DP  RH WIND       PRES   REMARKS
TWIN CITIES    SUNNY     74  46  36 W12G18    29.85F
ST PAUL        SUNNY     74  49  41 W7        29.86F
CRYSTAL        SUNNY     75  47  36 SW10      29.83F
BLAINE         SUNNY     75  48  38 SW7       29.84F
EDEN PRAIRIE   SUNNY     74  47  38 SW8       29.85F
SOUTH ST PAUL  SUNNY     75  46  34 W10       29.85F
LAKE ELMO      FAIR      73  50  43 SW9       29.87S
$$
MNZ001>005-007-008-013>017-022>024-027-028-061600-
   Northwest Minnesota

CITY           SKY/WX    TMP DP  RH WIND       PRES   REMARKS
BEMIDJI        SUNNY     78  48  34 SW12      29.73F
HALLOCK        MOSUNNY   64  41  42 N30       29.77R
ROSEAU         MOSUNNY   73  46  38 NW13G20   29.70R
WARROAD        SUNNY     73  54  49 W12G17    29.68R
THIEF RVR FALL CLOUDY    70  45  40 W14G22    29.75R
CROOKSTON      SUNNY     73  46  38 N22       29.76R
FOSSTON        MOSUNNY   73  45  35 SW14      29.74F
DETROIT LAKES  SUNNY     73  48  40 W8        29.79R
MOORHEAD       SUNNY     73  48  40 S9        29.76S
PARK RAPIDS    SUNNY     78  48  34 SW9       29.76S
MAHNOMEN       FAIR      74  48  39 SW15      29.75F
$$
MNZ006-009>011-018-025>026-061600-
   North Central Minnesota

CITY           SKY/WX    TMP DP  RH WIND       PRES   REMARKS
BAUDETTE       CLOUDY    75  45  34 W12       29.67R
FLAG ISLAND    MOSUNNY   70  45  40 NW22      29.65R
INTL FALLS     MOSUNNY   78  47  33 SW10      29.66S
WASKISH        CLOUDY    75  48  38 SW14      29.70F
BIG FORK       MOSUNNY   79  46  31 SW9       29.71F
LONGVILLE      SUNNY     79  46  31 SW5       29.75F
GRAND RAPIDS   SUNNY     77  45  31 W9        29.77F
CRANE LAKE     SUNNY     79  43  27 S8        29.68F
ORR            SUNNY     81  41  24 S8        29.67F
COOK           MOSUNNY   79  46  31 W10       29.71F
WALKER         FAIR      75  47  36 NW7       29.75S
$$
MNZ012-019>021-037-061600-
   Northeast Minnesota

CITY           SKY/WX    TMP DP  RH WIND       PRES   REMARKS
DULUTH         SUNNY     82  44  26 W15       29.77F
ELY            SUNNY     79  43  27 SW10G20   29.71F
HIBBING        SUNNY     78  45  30 W10       29.74F
EVELETH        SUNNY     77  43  29 SW13      29.75F
DULUTH HARBOR  SUNNY     77  48  36 SW12      29.74F
TWO HARBORS      N/A     84  54  34 W14G25    29.72F
SILVER BAY     SUNNY     84  43  23 W8        29.71F
GRAND MARAIS     N/A     45  36  70 NE5       29.73F
G MARAIS ARPRT SUNNY     79  41  25 SW5       29.74F
$$
MNZ029>031-032-039>041-046>048-054>057-064-061600-
   West Central Minnesota

CITY           SKY/WX    TMP DP  RH WIND       PRES   REMARKS
FERGUS FALLS   SUNNY     73  50  43 SW9       29.74F
WHEATON        PTSUNNY   75  54  46 SW6       29.78S
MORRIS         CLOUDY    73  52  46 SW13      29.77F
ALEXANDRIA     SUNNY     73  48  41 SW13      29.80F
ELBOW LAKE     FAIR      73  51  46 SW9       29.78F
WADENA         SUNNY     75  48  38 SW9       29.77S
GLENWOOD       SUNNY     73  48  40 SW17      29.81F
APPLETON       SUNNY     75  48  38 SW18      29.77F
BENSON         SUNNY     75  46  35 W14       29.79F
ORTONVILLE     CLOUDY    73  50  43 SW10G18   29.78S
MADISON        SUNNY     75  50  41 W16       29.79R
WILLMAR        FAIR      79  48  34 SW16G24   29.82F
$$
MNZ033>034-036-042>043-049>051-058-059-061600-
   Central Minnesota

CITY           SKY/WX    TMP DP  RH WIND       PRES   REMARKS
ST CLOUD       SUNNY     75  48  38 SW13      29.81F
SAUK CENTRE      N/A     75  50  41 SW13      29.81S
PAYNESVILLE    SUNNY     74  45  35 SW13      29.83S
AITKIN         SUNNY     81  39  22 SW8       29.76F
PINE RIVER     SUNNY     77  52  41 SW6       29.79F
BRAINERD       SUNNY     77  48  35 SW12      29.78F
STAPLES        SUNNY     75  46  35 SW7G16    29.78S
LONG PRAIRIE   FAIR      73  50  43 S13G20    29.81F
LITTLE FALLS   SUNNY     73  45  35 SW7       29.80S
LITCHFIELD     SUNNY     77  48  36 SW10      29.83F
BUFFALO        SUNNY     73  47  39 S8        29.85F
MAPLE LAKE     SUNNY     73  51  44 SW6       29.85F
HUTCHINSON     MOSUNNY   76  50  39 SW13      29.86F
$$
MNZ037-044-045-052-053-061600-
   East Central Minnesota

CITY           SKY/WX    TMP DP  RH WIND       PRES   REMARKS
PRINCETON      SUNNY     79  48  34 S9        29.81F
MORA           SUNNY     72  45  37 SW9       29.82F
CAMBRIDGE      SUNNY     79  54  41 S9        29.80F
RUSH CITY      SUNNY     75  47  36 SW6       29.82F
MOOSE LAKE     SUNNY     81  48  32 SW9       29.76F
HINCKLEY       CLOUDY    73  50  43 SW8       29.80F
CLOQUET        SUNNY     81  39  22 SW16      29.77F
MCGREGOR       SUNNY     79  46  31 SW7       29.78F
$$
MNZ071>073-080-081-089-090-097-098-061600-
   Southwest Minnesota

CITY           SKY/WX    TMP DP  RH WIND       PRES   REMARKS
MONTEVIDEO     SUNNY     79  48  34 W12G21    29.81F
GRANITE FALLS  SUNNY     80  49  33 SW21G30   29.82F
CANBY          SUNNY     78  52  40 SW22G31   29.80S
MARSHALL       SUNNY     76  49  38 SW28G35   29.82F
REDWOOD FALLS  SUNNY     78  47  33 SW20G30   29.83F
OLIVIA         SUNNY     73  45  35 SW18G25   29.82F
PIPESTONE      SUNNY     72  48  43 SW16G23   29.89F
WINDOM         SUNNY     75  43  31 SW22      29.89F
WORTHINGTON    SUNNY     72  48  42 SW21G31   29.91F
JACKSON        SUNNY     73  37  27 SW22      29.92S
TRACY          SUNNY     73  49  41 SW23G29   29.86F
SLAYTON        SUNNY     69  45  42 SW24G30   29.90S
$$
MNZ065>067-074>077-082>085-091>093-061600-
   South Central Minnesota

CITY           SKY/WX    TMP DP  RH WIND       PRES   REMARKS
MANKATO        SUNNY     75  46  35 SW17G25   29.88F
NEW ULM        SUNNY     75  45  33 SW14      29.87S
ST JAMES       SUNNY     72  43  35 SW18G25   29.88F
FAIRMONT       SUNNY     73  45  35 SW17G23   29.91S
GLENCOE        SUNNY     75  50  41 SW12G17   29.85F
FARIBAULT      SUNNY     73  48  40 SW8       29.89F
OWATONNA       SUNNY     77  43  29 SW14G21   29.90F
WASECA         SUNNY     77  48  36 SW18      29.91F
ALBERT LEA     SUNNY     75  45  33 W7G16     29.92F
$$
MNZ078>079-086>088-094>096-061600-
   Southeast Minnesota

CITY           SKY/WX    TMP DP  RH WIND       PRES   REMARKS
ROCHESTER      SUNNY     77  48  35 W18       29.92F
RED WING       SUNNY     77  45  31 W6        29.86F
STANTON        SUNNY     76  47  35 W10       29.86F
DODGE CENTER   SUNNY     75  45  33 W17G24    29.91F
WINONA         SUNNY     70  45  40 CALM      29.89F
AUSTIN         SUNNY     73  45  35 W12       29.93F
PRESTON        SUNNY     74  45  35 W13G22    29.92F
$$
ABBREVIATIONS USED IN REMARKS
   TC - TEMPERATURES IN CELSIUS
  WCI - WIND CHILL INDEX
   HX - HEAT INDEX
  VSB - VISIBILITY
$$




USA.gov is the U.S. government's official web portal to all federal, state and local government web resources and services.